Location: Newark
(55.7083°N, 13.1992°E)
Time: 23:14:03
(UTC+00:00)

Envisat - Pass Details

Date: 05 October 2022
Orbit: 763 x 765 km, 98.2° (Epoch: 09 December)

Event Time Altitude Azimuth Distance (km) Brightness Sun altitude
Rises 02:40:36 0° 21° (NNE) 3,249 7.0 -22.3°
Reaches altitude 10° 02:43:13 10° 32° (NNE) 2,317 6.3 -22.0°
Maximum altitude 02:47:39 29° 92° (E) 1,381 4.9 -21.4°
Drops below altitude 10° 02:52:03 10° 153° (SSE) 2,302 5.5 -20.9°
Sets 02:54:38 0° 164° (SSE) 3,223 6.2 -20.5°
